Overview Statistics Trail Chart Weather Telemetry Raw packets
 

This is the latest recevied weather packets stored in our database for station/object LU1MQF-13. If no packets are shown the sender has not sent any weather packets the latest 10 day(s).

<< 5 6 7 8 9 10 11 >>
Time Temp. Humidity Pressure Rain* Wind** Luminosity Snow
1777882325 12.78° C 42% 932.1 hPa - - - -
1777881425 12.78° C 42% 932 hPa - - - -
1777880525 12.78° C 42% 932.2 hPa - - - -
1777879625 13.89° C 42% 932.2 hPa - - - -
1777878725 13.89° C 43% 932.3 hPa - - - -
1777877825 13.89° C 43% 932.7 hPa - - - -
1777876924 13.89° C 43% 932.7 hPa - - - -
1777876025 13.89° C 43% 932.6 hPa - - - -
1777875125 13.89° C 43% 933 hPa - - - -
1777874226 13.89° C 43% 933 hPa - - - -
1777873325 13.89° C 43% 933.5 hPa - - - -
1777872424 13.89° C 43% 933.4 hPa - - - -
1777871524 13.89° C 43% 933.2 hPa - - - -
1777870625 13.89° C 43% 933.4 hPa - - - -
1777869725 13.89° C 43% 933.4 hPa - - - -
1777868824 13.89° C 44% 933.3 hPa - - - -
1777867925 13.89° C 44% 933.2 hPa - - - -
1777867025 13.89° C 44% 933.3 hPa - - - -
1777866125 13.89° C 45% 933.5 hPa - - - -
1777865225 15° C 48% 933.6 hPa - - - -
1777864325 15° C 47% 933.5 hPa - - - -
1777863424 16.11° C 49% 933.6 hPa - - - -
1777862525 13.89° C 42% 933.7 hPa - - - -
1777861625 15° C 43% 933.7 hPa - - - -
1777860724 15° C 45% 933.6 hPa - - - -

* Rain since midnight (hover to see other rain measurements)
** Current wind speed in m/s (hover to see current wind gust speed)